User: anonymous   Login
Location: Unspecified
(0.0000°N, 0.0000°E)
Time: 08:05:05
(UTC+00:00)
Language:

ISS - Orbit

View from above orbital plane
View from above orbital plane
View from above satellite
View from above satellite

Ground track
Ground track

The orbit data is extracted from the following two-line orbital elements,

1 25544U 98067A   14353.96190163  .00027064  00000-0  43942-3 0  5935
2 25544 051.6478 258.2966 0007909 153.5261 315.0097 15.52493402920156
Epoch (UTC): 19 December 2014 23:05:08
Eccentricity: 0.0007909
inclination: 51.6478°
perigee height: 404 km
apogee height: 415 km
right ascension of ascending node: 258.2966°
argument of perigee: 153.5261°
revolutions per day: 15.52493402
mean anomaly at epoch: 315.0097°
orbit number at epoch: 92015

The dashed part of the orbit path shows where the satellite is in the earth's shadow,  

DLR